ARIANE 5 DEB (SYLDA), 43273

Orbit data source: Space-Track

ARIANE 5 DEB (SYLDA), 43273 is space debris in HEO originally from a launch on Thu, 05 Apr 2018 UTC launched from the French Guiana (FRGUI). Debris objects in space refer to the collection of defunct objects orbiting the Earth. Examples of debris include non-operational satellites, rocket bodies, and fragments generated from explosions, collisions, or faulty payload assembly.

Loading next visibility...
Identifier
43273, 2018-033C
Orbit
HEO
Country
Flag of FRFR
Related business
Manufacturer
ArianeGroup
Mission
Spacecraft
Bus & Motor
ESC-A, Unknown motor
Mass
~5,000 kg wet, ~5,000 kg dry
Launch date (UTC)
2018-04-05 (8 years ago)
Launch vehicle
Unknown
Launch site
French Guiana (FRGUI)
Object type
Payload
Rocket body
Debris
Shape & HBR
Cyl + 1 Nozzle, 3.5 m
Radar Cross Section
41.627 m², Large (>1 m²)

Expand to show TLE details & history
Last TLE update: 2 days ago

TLE from 2 days ago
0 ARIANE 5 DEB (SYLDA)
1 43273U 18033C   26171.40768023  .00001119  00000-0  12252-2 0  9997
2 43273   2.7170 239.6333 5480416  11.4220 357.2461  4.69347307109297
Epoch: 2026-06-20T09:47Z
TLE epoch observation values (Epoch: 2026-06-20T09:47:03.571Z)
Latitude
-0°
Longitude
-175.69153°
Altitude
473.947 km
Speed
9.481 km/s
True Right ascension
15h 58m 47s
True Declination
0° 00' 00"
Sunlit
Object was in full shadow at epoch
Visualization orbit readout
Latitude
Unknown
Longitude
Unknown
Altitude
Unknown
Speed
Unknown
Apparent Right ascension
Unknown
Apparent Declination
Unknown
Sunlit
N/A
Visualization observer readout
Local Sidereal Time
00:37:45
Azimuth
Unknown
Elevation
Unknown
Doppler factor
Unknown
Orbital elements
Apogee altitude
16,956.371 km
Perigee altitude
434.488 km
Semi-major axis
15,073.566 km
Eccentricity
0.54804
Inclination
2.717°
RAAN
239.6333°
Arg. of periapsis
11.422°
True anomaly
348.77411°
Mean anomaly
357.2461°
Eccentric anomaly
353.92057°
Mean motion
1.17279 °/min
Orbital period
306.96 mins
BSTAR
0.0012252
Loading maneuver chart data...
Computing Atmospheric mass density...
Loading historical data...
Loading historical data...
Loading historical data...
Loading historical data...
Loading historical data...
Loading historical data...
Loading historical data...
Other satellites on launch #33 in the year 2018 (2018-04-05 UTC)

Documentation

Showing up to 5 results
|